Change the Weather History Date:

Saturday, December 7, 2013

  Actual Average Record
Temperature  
Mean Temperature 28 °F -  
Max Temperature 32 °F 40 °F 66 °F (1998)
Min Temperature 23 °F 23 °F -1 °F (1926)
Degree Days  
Heating Degree Days 38    
Moisture  
Dew Point 19 °F    
Average Humidity 67    
Maximum Humidity 88    
Minimum Humidity 51    
Precipitation  
Precipitation 0.01 in - - ()
Sea Level Pressure  
Sea Level Pressure 30.38 in    
Wind  
Wind Speed 6 mph (WNW)    
Max Wind Speed 15 mph    
Max Gust Speed 22 mph    
Visibility 9 miles    
Events Snow    
Averages and records for this station are not official NWS values.
T = Trace of Precipitation, MM = Missing Value Source: NWS Daily Summary

Daily Weather History Graph

Daily Weather History Graph

Search for Another Location

Airport or City:

Trip Planner

Search our weather history database for the weather conditions in past years. The results will help you decide how hot, cold, wet, or windy it might be!

Date:

Astronomy

Dec. 07, 2013 Rise Set
Actual Time 7:22 AM EST 4:35 PM EST
Civil Twilight 6:51 AM EST 5:07 PM EST
Nautical Twilight 6:16 AM EST 5:42 PM EST
Astronomical Twilight 5:42 AM EST 6:16 PM EST
Moon 11:02 AM EST (12/7) 10:18 PM EST (12/7)
Length of Visible Light 10h 15m
Length of Day
9h 12m
Waxing Crescent, 29% of the Moon is Illuminated
Dec 7
Waxing Crescent
Dec 9
First Quarter
Dec 17
Full
Dec 25
Last Quarter
Jan 1
New

Hourly Weather History & Observations

Time (EST) Temp. Windchill Dew Point Humidity Pressure Visibility Wind Dir Wind Speed Gust Speed Precip Events Conditions
12:21 AM 30.2 °F 26.7 °F 26.6 °F 86% 30.21 in 3.0 mi SSW 3.5 mph - 0.01 in Snow Light Snow
12:35 AM 30.2 °F 26.7 °F 26.6 °F 86% 30.21 in 5.0 mi SW 3.5 mph - 0.01 in   Overcast
12:53 AM 30.0 °F 26.5 °F 27.0 °F 88% 30.23 in 7.0 mi SSW 3.5 mph - 0.01 in   Overcast
1:53 AM 30.0 °F 23.2 °F 26.1 °F 85% 30.23 in 5.0 mi WSW 6.9 mph - 0.00 in Snow Light Snow
2:53 AM 30.0 °F 26.5 °F 25.0 °F 82% 30.26 in 10.0 mi Variable 3.5 mph - 0.00 in   Overcast
3:53 AM 30.0 °F - 23.0 °F 75% 30.26 in 10.0 mi Calm Calm - N/A   Overcast
4:24 AM 30.2 °F 26.7 °F 23.0 °F 75% 30.23 in 10.0 mi WSW 3.5 mph - N/A   Overcast
4:53 AM 30.0 °F 26.5 °F 23.0 °F 75% 30.27 in 10.0 mi West 3.5 mph - N/A   Overcast
5:53 AM 30.0 °F 24.1 °F 23.0 °F 75% 30.30 in 10.0 mi NNW 5.8 mph - N/A   Overcast
6:53 AM 30.0 °F 24.1 °F 21.9 °F 72% 30.33 in 10.0 mi NNW 5.8 mph - N/A   Overcast
7:53 AM 30.0 °F 24.1 °F 21.9 °F 72% 30.36 in 10.0 mi NNW 5.8 mph - N/A   Overcast
8:43 AM 30.2 °F 23.4 °F 19.4 °F 64% 30.35 in 10.0 mi WNW 6.9 mph 16.1 mph N/A   Overcast
8:53 AM 30.0 °F 22.4 °F 19.0 °F 64% 30.39 in 10.0 mi NW 8.1 mph - N/A   Overcast
9:53 AM 30.0 °F 21.1 °F 19.0 °F 64% 30.40 in 9.0 mi NW 10.4 mph - N/A   Overcast
10:53 AM 30.0 °F 20.0 °F 19.0 °F 64% 30.41 in 9.0 mi WNW 12.7 mph - N/A   Overcast
11:53 AM 30.0 °F 21.7 °F 17.1 °F 59% 30.40 in 10.0 mi NW 9.2 mph - 0.00 in   Scattered Clouds
12:53 PM 30.9 °F 22.2 °F 16.0 °F 54% 30.40 in 10.0 mi NW 10.4 mph - N/A   Partly Cloudy
1:53 PM 32.0 °F 21.6 °F 17.1 °F 54% 30.40 in 10.0 mi NNW 15.0 mph 21.9 mph N/A   Clear
2:53 PM 30.9 °F 21.7 °F 16.0 °F 54% 30.41 in 10.0 mi NW 11.5 mph 16.1 mph N/A   Mostly Cloudy
3:53 PM 28.9 °F 18.2 °F 12.9 °F 51% 30.44 in 10.0 mi WNW 13.8 mph 19.6 mph N/A   Mostly Cloudy
4:53 PM 26.1 °F 16.2 °F 10.9 °F 53% 30.46 in 10.0 mi NW 10.4 mph - N/A   Clear
5:53 PM 26.1 °F 16.2 °F 10.9 °F 53% 30.49 in 10.0 mi West 10.4 mph - N/A   Overcast
6:53 PM 25.0 °F 16.3 °F 12.0 °F 58% 30.51 in 10.0 mi West 8.1 mph - N/A   Overcast
7:53 PM 25.0 °F 18.1 °F 12.0 °F 58% 30.53 in 10.0 mi West 5.8 mph - N/A   Overcast
8:53 PM 24.1 °F 17.0 °F 12.9 °F 62% 30.54 in 10.0 mi WNW 5.8 mph - N/A   Overcast
9:53 PM 25.0 °F - 12.9 °F 60% 30.55 in 10.0 mi Calm Calm - N/A   Overcast
10:53 PM 23.0 °F 18.4 °F 15.1 °F 72% 30.56 in 10.0 mi SW 3.5 mph - N/A   Overcast
11:53 PM 23.0 °F - 14.0 °F 68% 30.56 in 10.0 mi Calm Calm - N/A   Overcast